OBJECT M, 42836

Orbit data source: Space-Track

You're viewing an Uncataloged Satellite

Recently launched and/or uncataloged satellites may have evolving metadata. Metadata may include but not limited to: Owner, Maufacturer, Bus, Motor, and Mission.

OBJECT M, 42836 is a satellite in SSO that was launched on Fri, 14 Jul 2017 UTC via a SOYUZ-2-1A launch vehicle from the Tyuratam Missile And Space Complex (TTMTR). Unknown objects in Earth's orbit typically refer to objects detected orbiting the Earth but have not yet been identified or cataloged. These objects could be anything from previously untracked satellites, spent rocket stages, debris from satellite collisions, or even natural meteoroids temporarily captured by Earth's gravity.

Loading next visibility...
Identifier
42836, 2017-042M
Orbit
SSO
Country
Flag of TBDTBD
Related business
None
Manufacturer
Unknown
Mission
Non-operational Civil Technology
Bus & Motor
Unknown
Mass
Unknown
Launch date (UTC)
2017-07-14 (9 years ago)
Launch vehicle
SOYUZ-2-1A
Launch site
Tyuratam Missile And Space Complex (TTMTR)
Object type
Unknown
Shape & HBR
Box + 2 Pan, 0.2 m
Radar Cross Section
0.092 m², Medium (>0.1 m² and < 1m²)

Expand to show TLE details & history
Last TLE update: 16 hours ago

TLE from 16 hours ago
0 OBJECT M
1 42836U 17042M   26023.41467867  .00010533  00000-0  70001-3 0  9996
2 42836  97.4065 190.3725 0003356 227.5928 132.5017 15.07357395465194
Epoch: 2026-01-23T09:57Z
TLE epoch observation values (Epoch: 2026-01-23T09:57:08.237Z)
Latitude
0.00004°
Longitude
-81.66565°
Altitude
548.922 km
Speed
7.587 km/s
True Right ascension
12h 41m 29s
True Declination
0° 00' 00"
Sunlit
Object was in full shadow at epoch
Visualization orbit readout
Latitude
Unknown
Longitude
Unknown
Altitude
Unknown
Speed
Unknown
Apparent Right ascension
Unknown
Apparent Declination
Unknown
Sunlit
N/A
Visualization observer readout
Local Sidereal Time
02:56:31
Azimuth
Unknown
Elevation
Unknown
Doppler factor
Unknown
Orbital elements
Apogee altitude
543.584 km
Perigee altitude
538.939 km
Semi-major axis
6,919.399 km
Eccentricity
0.00034
Inclination
97.4065°
RAAN
190.3725°
Arg. of periapsis
227.5928°
True anomaly
132.53004°
Mean anomaly
132.5017°
Eccentric anomaly
132.51587°
Mean motion
3.77086 °/min
Orbital period
95.47 mins
BSTAR
0.00070001
Loading maneuver chart data...
Computing Atmospheric mass density...

Documentation

Showing up to 5 results
|